TimeICT,TemperatureF,Dew PointF,Humidity,Sea Level PressureIn,VisibilityMPH,Wind Direction,Wind SpeedMPH,Gust SpeedMPH,PrecipitationIn,Events,Conditions,WindDirDegrees,DateUTC
12:00 AM,82.4,69.8,66,29.80,6.2,NNE,4.6,-,N/A,,Scattered Clouds,30,2012-10-27 17:00:00
12:30 AM,82.4,71.6,70,29.80,6.2,NE,3.5,-,N/A,,Scattered Clouds,50,2012-10-27 17:30:00
1:00 AM,81,72,68,29.78,6,Calm,Calm,,,,,,2012-10-27 18:00:00
1:00 AM,82.4,71.6,70,29.80,6.2,NE,4.6,-,N/A,,Scattered Clouds,50,2012-10-27 18:00:00
1:30 AM,82.4,71.6,70,29.77,6.2,ENE,2.3,-,N/A,,Scattered Clouds,70,2012-10-27 18:30:00
2:00 AM,82.4,71.6,70,29.77,6.2,Calm,Calm,-,N/A,,Scattered Clouds,0,2012-10-27 19:00:00
2:30 AM,80.6,71.6,74,29.77,6.2,Calm,Calm,-,N/A,,Scattered Clouds,0,2012-10-27 19:30:00
3:00 AM,80.6,71.6,74,29.77,6.2,Calm,Calm,-,N/A,,Scattered Clouds,0,2012-10-27 20:00:00
3:30 AM,80.6,73.4,79,29.77,6.2,ENE,3.5,-,N/A,,Scattered Clouds,60,2012-10-27 20:30:00
4:00 AM,80.6,73.4,79,29.77,6.2,ENE,3.5,-,N/A,,Scattered Clouds,60,2012-10-27 21:00:00
4:30 AM,80.6,73.4,79,29.77,6.2,North,3.5,-,N/A,,Scattered Clouds,350,2012-10-27 21:30:00
5:00 AM,78.8,71.6,78,29.77,6.2,Calm,Calm,-,N/A,,Scattered Clouds,0,2012-10-27 22:00:00
5:30 AM,78.8,71.6,78,29.77,6.2,Calm,Calm,-,N/A,,Scattered Clouds,0,2012-10-27 22:30:00
6:00 AM,80.6,73.4,79,29.80,6.2,North,3.5,-,N/A,,Scattered Clouds,360,2012-10-27 23:00:00
6:30 AM,80.6,71.6,74,29.80,6.2,NNE,3.5,-,N/A,,Scattered Clouds,20,2012-10-27 23:30:00
7:00 AM,81,71,64,29.79,6,Calm,Calm,,,,Partly Cloudy,,2012-10-28 00:00:00
7:00 AM,82.4,73.4,74,29.80,6.2,North,2.3,-,N/A,,Scattered Clouds,360,2012-10-28 00:00:00
7:30 AM,84.2,73.4,70,29.83,6.2,North,3.5,-,N/A,,Scattered Clouds,10,2012-10-28 00:30:00
8:00 AM,84.2,73.4,70,29.83,6.2,NE,4.6,-,N/A,,Scattered Clouds,40,2012-10-28 01:00:00
8:30 AM,87.8,73.4,62,29.83,6.2,NNE,2.3,-,N/A,,Scattered Clouds,30,2012-10-28 01:30:00
9:00 AM,87.8,69.8,55,29.83,6.2,Variable,2.3,-,N/A,,Scattered Clouds,0,2012-10-28 02:00:00
9:30 AM,89.6,69.8,52,29.86,6.2,ENE,3.5,-,N/A,,Scattered Clouds,70,2012-10-28 02:30:00
10:00 AM,91.4,69.8,49,29.83,6.2,NE,2.3,-,N/A,,Scattered Clouds,40,2012-10-28 03:00:00
10:30 AM,91.4,69.8,49,29.83,6.2,East,3.5,-,N/A,,Scattered Clouds,90,2012-10-28 03:30:00
11:00 AM,93.2,68.0,44,29.83,6.2,NE,4.6,-,N/A,,Scattered Clouds,50,2012-10-28 04:00:00
11:30 AM,93.2,68.0,44,29.80,6.2,NNE,3.5,-,N/A,,Scattered Clouds,30,2012-10-28 04:30:00
12:00 PM,93.2,66.2,41,29.80,6.2,East,5.8,-,N/A,,Scattered Clouds,80,2012-10-28 05:00:00
12:30 PM,93.2,68.0,44,29.77,6.2,ENE,4.6,-,N/A,,Scattered Clouds,60,2012-10-28 05:30:00
1:00 PM,97,70,33,29.76,7,Calm,Calm,,,,Mostly Cloudy,,2012-10-28 06:00:00
1:00 PM,93.2,68.0,44,29.77,6.2,ESE,5.8,-,N/A,,Scattered Clouds,110,2012-10-28 06:00:00
1:30 PM,95.0,66.2,39,29.77,6.2,ESE,6.9,-,N/A,,Scattered Clouds,120,2012-10-28 06:30:00
2:00 PM,93.2,69.8,46,29.74,6.2,East,6.9,-,N/A,,Scattered Clouds,80,2012-10-28 07:00:00
2:30 PM,95.0,68.0,41,29.74,6.2,East,8.1,-,N/A,,Scattered Clouds,90,2012-10-28 07:30:00
3:00 PM,95.0,68.0,41,29.71,6.2,NNE,6.9,-,N/A,,Scattered Clouds,30,2012-10-28 08:00:00
3:30 PM,95.0,66.2,39,29.71,6.2,NNE,6.9,-,N/A,,Scattered Clouds,30,2012-10-28 08:30:00
4:00 PM,93.2,68.0,44,29.71,6.2,East,4.6,-,N/A,,Scattered Clouds,90,2012-10-28 09:00:00
4:30 PM,93.2,66.2,41,29.71,6.2,NE,5.8,-,N/A,,Scattered Clouds,40,2012-10-28 09:30:00
5:00 PM,93.2,68.0,44,29.71,6.2,NNE,4.6,-,N/A,,Scattered Clouds,30,2012-10-28 10:00:00
5:30 PM,93.2,69.8,46,29.74,6.2,NE,3.5,-,N/A,,Scattered Clouds,50,2012-10-28 10:30:00
6:00 PM,93.2,69.8,46,29.74,6.2,ENE,2.3,-,N/A,,Scattered Clouds,70,2012-10-28 11:00:00
6:30 PM,87.8,71.6,58,29.74,6.2,SSW,8.1,-,N/A,,Scattered Clouds,200,2012-10-28 11:30:00
7:00 PM,87,76,62,29.70,6,SE,3.5,,,,Clear,140,2012-10-28 12:00:00
7:00 PM,86.0,73.4,66,29.77,6.2,SSW,6.9,-,N/A,,Scattered Clouds,210,2012-10-28 12:00:00
7:30 PM,86.0,73.4,66,29.80,6.2,SSW,5.8,-,N/A,,Scattered Clouds,200,2012-10-28 12:30:00
8:00 PM,86.0,73.4,66,29.80,6.2,SSW,5.8,-,N/A,,Scattered Clouds,210,2012-10-28 13:00:00
8:30 PM,86.0,73.4,66,29.80,6.2,SSW,4.6,-,N/A,,Scattered Clouds,200,2012-10-28 13:30:00
9:00 PM,84.2,75.2,74,29.83,6.2,SSW,5.8,-,N/A,,Scattered Clouds,200,2012-10-28 14:00:00
9:30 PM,84.2,75.2,74,29.83,6.2,SSW,6.9,-,N/A,,Scattered Clouds,200,2012-10-28 14:30:00
10:00 PM,84.2,75.2,74,29.83,6.2,SSW,6.9,-,N/A,,Scattered Clouds,200,2012-10-28 15:00:00
10:30 PM,84.2,75.2,74,29.83,6.2,SSW,5.8,-,N/A,,Scattered Clouds,200,2012-10-28 15:30:00
11:00 PM,84.2,75.2,74,29.83,6.2,SSW,5.8,-,N/A,,Scattered Clouds,200,2012-10-28 16:00:00
11:30 PM,86.0,75.2,70,29.83,6.2,South,6.9,-,N/A,,Scattered Clouds,180,2012-10-28 16:30:00